Time,TemperatureF,DewpointF,PressureIn,WindDirection,WindDirectionDegrees,WindSpeedMPH,WindSpeedGustMPH,Humidity,HourlyPrecipIn,Conditions,Clouds,dailyrainin,SoftwareType,DateUTC
2013-02-15 00:02:00,43.0,28.0,30.09,West,280,6.0,10.0,55,-99.99,,,-99.99,,2013-02-15 06:02:00,
2013-02-15 00:11:00,43.0,28.0,30.09,WNW,290,6.0,12.0,55,-99.99,,,-99.99,,2013-02-15 06:11:00,
2013-02-15 00:22:00,43.0,28.0,30.09,WNW,290,6.0,12.0,55,-99.99,,,-99.99,,2013-02-15 06:22:00,
2013-02-15 00:32:00,42.0,28.0,30.10,West,280,7.0,12.0,56,-99.99,,,-99.99,,2013-02-15 06:32:00,
2013-02-15 00:42:00,42.0,28.0,30.09,WNW,300,6.0,9.0,57,-99.99,,,-99.99,,2013-02-15 06:42:00,
2013-02-15 00:52:00,42.0,28.0,30.09,WNW,300,6.0,9.0,57,-99.99,,,-99.99,,2013-02-15 06:52:00,
2013-02-15 01:01:00,42.0,28.0,30.10,NW,305,8.0,14.0,57,-99.99,,,-99.99,,2013-02-15 07:01:00,
2013-02-15 01:11:00,42.0,27.0,30.10,WNW,290,8.0,16.0,55,-99.99,,,-99.99,,2013-02-15 07:11:00,
2013-02-15 01:21:00,42.0,27.0,30.10,WNW,290,8.0,16.0,55,-99.99,,,-99.99,,2013-02-15 07:21:00,
2013-02-15 01:31:00,41.0,27.0,30.10,WNW,295,4.0,10.0,57,-99.99,,,-99.99,,2013-02-15 07:31:00,
2013-02-15 01:42:00,41.0,27.0,30.10,WNW,295,5.0,8.0,57,-99.99,,,-99.99,,2013-02-15 07:42:00,
2013-02-15 01:52:00,41.0,27.0,30.10,WNW,295,5.0,8.0,57,-99.99,,,-99.99,,2013-02-15 07:52:00,
2013-02-15 02:00:00,39.0,27.0,30.10,WNW,290,7.0,11.0,60,-99.99,,,-99.99,,2013-02-15 08:00:00,
2013-02-15 02:01:00,40.0,27.0,30.10,WNW,285,6.0,9.0,60,-99.99,,,-99.99,,2013-02-15 08:01:00,
2013-02-15 02:11:00,40.0,27.0,30.10,West,280,8.0,10.0,61,-99.99,,,-99.99,,2013-02-15 08:11:00,
2013-02-15 02:21:00,40.0,27.0,30.10,West,280,8.0,10.0,61,-99.99,,,-99.99,,2013-02-15 08:21:00,
2013-02-15 02:32:00,39.0,27.0,30.10,WNW,285,6.0,10.0,61,-99.99,,,-99.99,,2013-02-15 08:32:00,
2013-02-15 02:42:00,39.0,27.0,30.10,WNW,290,7.0,11.0,60,-99.99,,,-99.99,,2013-02-15 08:42:00,
2013-02-15 02:52:00,39.0,27.0,30.10,WNW,290,7.0,11.0,60,-99.99,,,-99.99,,2013-02-15 08:52:00,
2013-02-15 03:12:00,38.0,26.0,30.10,WNW,290,7.0,11.0,61,-99.99,,,-99.99,,2013-02-15 09:12:00,
2013-02-15 03:21:00,38.0,26.0,30.10,WNW,290,7.0,11.0,61,-99.99,,,-99.99,,2013-02-15 09:21:00,
2013-02-15 03:32:00,38.0,25.0,30.11,WNW,300,7.0,15.0,59,-99.99,,,-99.99,,2013-02-15 09:32:00,
2013-02-15 03:42:00,37.0,24.0,30.11,WNW,300,9.0,15.0,59,-99.99,,,-99.99,,2013-02-15 09:42:00,
2013-02-15 03:52:00,37.0,24.0,30.11,WNW,300,9.0,15.0,59,-99.99,,,-99.99,,2013-02-15 09:52:00,
2013-02-15 04:01:00,36.0,23.0,30.12,WNW,295,10.0,22.0,58,-99.99,,,-99.99,,2013-02-15 10:01:00,
2013-02-15 04:11:00,36.0,23.0,30.12,NW,305,10.0,21.0,58,-99.99,,,-99.99,,2013-02-15 10:11:00,
2013-02-15 04:21:00,36.0,23.0,30.12,NW,305,10.0,21.0,58,-99.99,,,-99.99,,2013-02-15 10:21:00,
2013-02-15 04:31:00,35.0,23.0,30.12,WNW,290,11.0,15.0,60,-99.99,,,-99.99,,2013-02-15 10:31:00,
2013-02-15 04:42:00,35.0,23.0,30.13,NW,305,8.0,16.0,62,-99.99,,,-99.99,,2013-02-15 10:42:00,
2013-02-15 04:51:00,35.0,23.0,30.13,NW,305,8.0,16.0,62,-99.99,,,-99.99,,2013-02-15 10:51:00,
2013-02-15 05:01:00,34.0,23.0,30.13,NW,305,11.0,17.0,62,-99.99,,,-99.99,,2013-02-15 11:01:00,
2013-02-15 05:11:00,34.0,23.0,30.14,NW,305,13.0,18.0,62,-99.99,,,-99.99,,2013-02-15 11:11:00,
2013-02-15 05:23:00,34.0,23.0,30.14,NW,305,13.0,18.0,62,-99.99,,,-99.99,,2013-02-15 11:23:00,
2013-02-15 05:32:00,34.0,23.0,30.14,WNW,295,8.0,15.0,64,-99.99,,,-99.99,,2013-02-15 11:32:00,
2013-02-15 05:42:00,33.0,23.0,30.15,WNW,285,8.0,12.0,65,-99.99,,,-99.99,,2013-02-15 11:42:00,
2013-02-15 05:52:00,33.0,23.0,30.15,WNW,285,8.0,12.0,65,-99.99,,,-99.99,,2013-02-15 11:52:00,
2013-02-15 06:02:00,33.0,23.0,30.16,NW,305,8.0,17.0,67,-99.99,,,-99.99,,2013-02-15 12:02:00,
2013-02-15 06:11:00,33.0,23.0,30.16,WNW,295,9.0,14.0,68,-99.99,,,-99.99,,2013-02-15 12:11:00,
2013-02-15 06:21:00,33.0,23.0,30.16,WNW,295,9.0,14.0,68,-99.99,,,-99.99,,2013-02-15 12:21:00,
2013-02-15 06:32:00,32.0,24.0,30.17,NW,310,9.0,14.0,70,-99.99,,,-99.99,,2013-02-15 12:32:00,
2013-02-15 06:42:00,32.0,24.0,30.17,NW,310,11.0,19.0,70,-99.99,,,-99.99,,2013-02-15 12:42:00,
2013-02-15 06:52:00,32.0,24.0,30.17,NW,310,11.0,19.0,70,-99.99,,,-99.99,,2013-02-15 12:52:00,
2013-02-15 07:02:00,32.0,24.0,30.17,WNW,300,11.0,20.0,71,-99.99,,,-99.99,,2013-02-15 13:02:00,
2013-02-15 07:11:00,32.0,24.0,30.17,NW,325,10.0,18.0,72,-99.99,,,-99.99,,2013-02-15 13:11:00,
2013-02-15 07:22:00,32.0,24.0,30.17,NW,325,10.0,18.0,72,-99.99,,,-99.99,,2013-02-15 13:22:00,
2013-02-15 07:32:00,32.0,24.0,30.18,WNW,290,8.0,12.0,72,-99.99,,,-99.99,,2013-02-15 13:32:00,
2013-02-15 07:42:00,32.0,24.0,30.19,NW,310,6.0,15.0,73,-99.99,,,-99.99,,2013-02-15 13:42:00,
2013-02-15 07:52:00,32.0,24.0,30.19,NW,310,6.0,15.0,73,-99.99,,,-99.99,,2013-02-15 13:52:00,
2013-02-15 08:01:00,32.0,24.0,30.19,NW,305,8.0,15.0,73,-99.99,,,-99.99,,2013-02-15 14:01:00,
2013-02-15 08:12:00,32.0,24.0,30.19,WNW,295,10.0,15.0,73,-99.99,,,-99.99,,2013-02-15 14:12:00,
2013-02-15 08:21:00,32.0,24.0,30.19,WNW,295,10.0,15.0,73,-99.99,,,-99.99,,2013-02-15 14:21:00,
2013-02-15 08:32:00,32.0,24.0,30.21,NW,305,10.0,17.0,74,-99.99,,,-99.99,,2013-02-15 14:32:00,
2013-02-15 08:42:00,32.0,24.0,30.21,NW,310,11.0,18.0,74,-99.99,,,-99.99,,2013-02-15 14:42:00,
2013-02-15 08:52:00,32.0,24.0,30.21,NW,310,11.0,18.0,74,-99.99,,,-99.99,,2013-02-15 14:52:00,
2013-02-15 09:01:00,32.0,24.0,30.22,NW,315,10.0,18.0,71,-99.99,,,-99.99,,2013-02-15 15:01:00,
2013-02-15 09:11:00,32.0,18.0,30.22,NNW,330,18.0,23.0,56,-99.99,,,-99.99,,2013-02-15 15:11:00,
2013-02-15 09:21:00,32.0,18.0,30.22,NNW,330,18.0,23.0,56,-99.99,,,-99.99,,2013-02-15 15:21:00,
2013-02-15 09:32:00,32.0,18.0,30.23,North,355,15.0,23.0,55,-99.99,,,-99.99,,2013-02-15 15:32:00,
2013-02-15 09:42:00,32.0,18.0,30.24,North,350,16.0,22.0,56,-99.99,,,-99.99,,2013-02-15 15:42:00,
2013-02-15 09:51:00,32.0,18.0,30.24,North,350,16.0,22.0,56,-99.99,,,-99.99,,2013-02-15 15:51:00,
2013-02-15 10:02:00,33.0,20.0,30.24,North,0,9.0,21.0,58,-99.99,,,-99.99,,2013-02-15 16:02:00,
2013-02-15 10:11:00,32.0,18.0,30.24,NW,325,11.0,18.0,55,-99.99,,,-99.99,,2013-02-15 16:11:00,
2013-02-15 10:22:00,32.0,18.0,30.24,NW,325,11.0,18.0,55,-99.99,,,-99.99,,2013-02-15 16:22:00,
2013-02-15 10:32:00,33.0,18.0,30.24,NW,325,10.0,17.0,53,-99.99,,,-99.99,,2013-02-15 16:32:00,
2013-02-15 10:42:00,33.0,16.0,30.24,NW,320,15.0,19.0,50,-99.99,,,-99.99,,2013-02-15 16:42:00,
2013-02-15 10:51:00,33.0,16.0,30.24,NW,320,15.0,19.0,50,-99.99,,,-99.99,,2013-02-15 16:51:00,
2013-02-15 11:01:00,34.0,16.0,30.25,NW,320,8.0,19.0,47,-99.99,,,-99.99,,2013-02-15 17:01:00,
2013-02-15 11:11:00,33.0,13.0,30.25,North,355,16.0,21.0,42,-99.99,,,-99.99,,2013-02-15 17:11:00,
2013-02-15 11:21:00,33.0,13.0,30.25,North,355,16.0,21.0,42,-99.99,,,-99.99,,2013-02-15 17:21:00,
2013-02-15 11:32:00,34.0,14.0,30.25,NW,325,12.0,18.0,44,-99.99,,,-99.99,,2013-02-15 17:32:00,
2013-02-15 11:42:00,34.0,15.0,30.25,WNW,300,14.0,20.0,44,-99.99,,,-99.99,,2013-02-15 17:42:00,
2013-02-15 11:52:00,34.0,15.0,30.25,WNW,300,14.0,20.0,44,-99.99,,,-99.99,,2013-02-15 17:52:00,
2013-02-15 12:01:00,34.0,12.0,30.26,NW,305,12.0,18.0,40,-99.99,,,-99.99,,2013-02-15 18:01:00,
2013-02-15 12:11:00,35.0,14.0,30.25,NW,305,8.0,19.0,42,-99.99,,,-99.99,,2013-02-15 18:11:00,
2013-02-15 12:21:00,35.0,14.0,30.25,NW,305,8.0,19.0,42,-99.99,,,-99.99,,2013-02-15 18:21:00,
2013-02-15 12:32:00,35.0,14.0,30.25,NW,320,5.0,19.0,42,-99.99,,,-99.99,,2013-02-15 18:32:00,
2013-02-15 12:42:00,36.0,14.0,30.25,NNW,335,10.0,17.0,41,-99.99,,,-99.99,,2013-02-15 18:42:00,
2013-02-15 12:52:00,36.0,14.0,30.25,NNW,335,10.0,17.0,41,-99.99,,,-99.99,,2013-02-15 18:52:00,
2013-02-15 13:01:00,36.0,13.0,30.25,NNW,330,7.0,18.0,38,-99.99,,,-99.99,,2013-02-15 19:01:00,
2013-02-15 13:11:00,36.0,11.0,30.24,NW,320,13.0,18.0,35,-99.99,,,-99.99,,2013-02-15 19:11:00,
2013-02-15 13:22:00,36.0,11.0,30.24,NW,320,13.0,18.0,35,-99.99,,,-99.99,,2013-02-15 19:22:00,
2013-02-15 13:32:00,35.0,6.0,30.24,NNW,330,11.0,21.0,29,-99.99,,,-99.99,,2013-02-15 19:32:00,
2013-02-15 13:42:00,36.0,9.0,30.23,NNW,330,12.0,19.0,31,-99.99,,,-99.99,,2013-02-15 19:42:00,
2013-02-15 13:52:00,36.0,9.0,30.23,NNW,330,12.0,19.0,31,-99.99,,,-99.99,,2013-02-15 19:52:00,
2013-02-15 14:01:00,36.0,7.0,30.23,NW,310,14.0,24.0,30,-99.99,,,-99.99,,2013-02-15 20:01:00,
2013-02-15 14:11:00,36.0,9.0,30.23,NNW,340,11.0,21.0,31,-99.99,,,-99.99,,2013-02-15 20:11:00,
2013-02-15 14:21:00,36.0,9.0,30.23,NNW,340,11.0,21.0,31,-99.99,,,-99.99,,2013-02-15 20:21:00,
2013-02-15 14:32:00,37.0,10.0,30.22,NW,310,8.0,19.0,31,-99.99,,,-99.99,,2013-02-15 20:32:00,
2013-02-15 14:42:00,37.0,9.0,30.22,NW,305,8.0,21.0,31,-99.99,,,-99.99,,2013-02-15 20:42:00,
2013-02-15 14:52:00,37.0,9.0,30.22,NW,305,8.0,21.0,31,-99.99,,,-99.99,,2013-02-15 20:52:00,
2013-02-15 15:02:00,37.0,9.0,30.22,North,0,10.0,19.0,31,-99.99,,,-99.99,,2013-02-15 21:02:00,
2013-02-15 15:11:00,37.0,9.0,30.22,West,280,10.0,22.0,30,-99.99,,,-99.99,,2013-02-15 21:11:00,
2013-02-15 15:21:00,37.0,9.0,30.22,West,280,10.0,22.0,30,-99.99,,,-99.99,,2013-02-15 21:21:00,
2013-02-15 15:32:00,38.0,9.0,30.22,NW,305,5.0,19.0,29,-99.99,,,-99.99,,2013-02-15 21:32:00,
2013-02-15 15:42:00,38.0,9.0,30.21,WNW,285,11.0,19.0,29,-99.99,,,-99.99,,2013-02-15 21:42:00,
2013-02-15 15:52:00,38.0,9.0,30.21,WNW,285,11.0,19.0,29,-99.99,,,-99.99,,2013-02-15 21:52:00,
2013-02-15 16:02:00,38.0,9.0,30.22,WNW,290,8.0,20.0,30,-99.99,,,-99.99,,2013-02-15 22:02:00,
2013-02-15 16:11:00,37.0,10.0,30.21,NNW,330,16.0,22.0,32,-99.99,,,-99.99,,2013-02-15 22:11:00,
2013-02-15 16:21:00,37.0,10.0,30.21,NNW,330,16.0,22.0,32,-99.99,,,-99.99,,2013-02-15 22:21:00,
2013-02-15 16:32:00,38.0,9.0,30.22,WNW,285,10.0,19.0,30,-99.99,,,-99.99,,2013-02-15 22:32:00,
2013-02-15 16:41:00,37.0,9.0,30.21,WNW,300,15.0,19.0,30,-99.99,,,-99.99,,2013-02-15 22:41:00,
2013-02-15 16:51:00,37.0,9.0,30.21,WNW,300,15.0,19.0,30,-99.99,,,-99.99,,2013-02-15 22:51:00,
2013-02-15 17:02:00,37.0,10.0,30.21,West,280,12.0,18.0,31,-99.99,,,-99.99,,2013-02-15 23:02:00,
2013-02-15 17:11:00,37.0,10.0,30.21,NW,310,12.0,19.0,32,-99.99,,,-99.99,,2013-02-15 23:11:00,
2013-02-15 17:21:00,37.0,10.0,30.21,NW,310,12.0,19.0,32,-99.99,,,-99.99,,2013-02-15 23:21:00,
2013-02-15 17:32:00,36.0,8.0,30.21,NW,315,10.0,19.0,31,-99.99,,,-99.99,,2013-02-15 23:32:00,
2013-02-15 17:42:00,36.0,9.0,30.21,NW,305,12.0,22.0,32,-99.99,,,-99.99,,2013-02-15 23:42:00,
2013-02-15 17:52:00,36.0,9.0,30.21,NW,305,12.0,22.0,32,-99.99,,,-99.99,,2013-02-15 23:52:00,
2013-02-15 18:02:00,36.0,10.0,30.22,WNW,285,10.0,18.0,33,-99.99,,,-99.99,,2013-02-16 00:02:00,
2013-02-15 18:11:00,36.0,9.0,30.22,NW,305,13.0,19.0,32,-99.99,,,-99.99,,2013-02-16 00:11:00,
2013-02-15 18:21:00,36.0,9.0,30.22,NW,305,13.0,19.0,32,-99.99,,,-99.99,,2013-02-16 00:21:00,
2013-02-15 18:32:00,35.0,9.0,30.22,WNW,300,8.0,15.0,33,-99.99,,,-99.99,,2013-02-16 00:32:00,
2013-02-15 18:41:00,35.0,9.0,30.22,WNW,295,8.0,12.0,34,-99.99,,,-99.99,,2013-02-16 00:41:00,
2013-02-15 18:51:00,35.0,9.0,30.22,WNW,295,8.0,12.0,34,-99.99,,,-99.99,,2013-02-16 00:51:00,
2013-02-15 19:02:00,34.0,10.0,30.22,WNW,295,9.0,12.0,36,-99.99,,,-99.99,,2013-02-16 01:02:00,
2013-02-15 19:11:00,34.0,10.0,30.22,WNW,300,11.0,16.0,36,-99.99,,,-99.99,,2013-02-16 01:11:00,
2013-02-15 19:21:00,34.0,10.0,30.22,WNW,300,11.0,16.0,36,-99.99,,,-99.99,,2013-02-16 01:21:00,
2013-02-15 19:32:00,33.0,9.0,30.22,NW,305,10.0,14.0,36,-99.99,,,-99.99,,2013-02-16 01:32:00,
2013-02-15 19:42:00,33.0,9.0,30.23,NW,310,8.0,13.0,37,-99.99,,,-99.99,,2013-02-16 01:42:00,
2013-02-15 19:51:00,33.0,9.0,30.23,NW,310,8.0,13.0,37,-99.99,,,-99.99,,2013-02-16 01:51:00,
2013-02-15 20:01:00,32.0,9.0,30.23,NW,315,8.0,13.0,38,-99.99,,,-99.99,,2013-02-16 02:01:00,
2013-02-15 20:11:00,32.0,10.0,30.23,WNW,300,6.0,10.0,39,-99.99,,,-99.99,,2013-02-16 02:11:00,
2013-02-15 20:21:00,32.0,10.0,30.23,WNW,300,6.0,10.0,39,-99.99,,,-99.99,,2013-02-16 02:21:00,
2013-02-15 20:32:00,31.0,9.0,30.23,NW,305,6.0,11.0,39,-99.99,,,-99.99,,2013-02-16 02:32:00,
2013-02-15 20:42:00,31.0,9.0,30.23,NW,310,5.0,10.0,39,-99.99,,,-99.99,,2013-02-16 02:42:00,
2013-02-15 20:52:00,31.0,9.0,30.23,NW,310,5.0,10.0,39,-99.99,,,-99.99,,2013-02-16 02:52:00,
2013-02-15 21:02:00,30.0,10.0,30.22,NW,310,4.0,8.0,41,-99.99,,,-99.99,,2013-02-16 03:02:00,
2013-02-15 21:11:00,30.0,9.0,30.22,WNW,295,4.0,7.0,41,-99.99,,,-99.99,,2013-02-16 03:11:00,
2013-02-15 21:21:00,30.0,9.0,30.22,WNW,295,4.0,7.0,41,-99.99,,,-99.99,,2013-02-16 03:21:00,
2013-02-15 21:32:00,30.0,10.0,30.22,West,275,3.0,6.0,43,-99.99,,,-99.99,,2013-02-16 03:32:00,
2013-02-15 21:42:00,30.0,10.0,30.22,NW,305,3.0,4.0,43,-99.99,,,-99.99,,2013-02-16 03:42:00,
2013-02-15 21:52:00,30.0,10.0,30.22,NW,305,3.0,4.0,43,-99.99,,,-99.99,,2013-02-16 03:52:00,
2013-02-15 22:01:00,29.0,10.0,30.22,WNW,290,2.0,3.0,45,-99.99,,,-99.99,,2013-02-16 04:01:00,
2013-02-15 22:11:00,29.0,11.0,30.22,West,280,1.0,2.0,47,-99.99,,,-99.99,,2013-02-16 04:11:00,
2013-02-15 22:21:00,29.0,11.0,30.22,West,280,1.0,2.0,47,-99.99,,,-99.99,,2013-02-16 04:21:00,
2013-02-15 22:32:00,29.0,11.0,30.22,West,280,3.0,4.0,46,-99.99,,,-99.99,,2013-02-16 04:32:00,
2013-02-15 22:42:00,29.0,10.0,30.22,WNW,290,3.0,5.0,46,-99.99,,,-99.99,,2013-02-16 04:42:00,
2013-02-15 22:51:00,29.0,10.0,30.22,WNW,290,3.0,5.0,46,-99.99,,,-99.99,,2013-02-16 04:51:00,
2013-02-15 23:01:00,29.0,10.0,30.21,West,280,3.0,5.0,45,-99.99,,,-99.99,,2013-02-16 05:01:00,
2013-02-15 23:12:00,28.0,10.0,30.21,West,280,3.0,4.0,46,-99.99,,,-99.99,,2013-02-16 05:12:00,
2013-02-15 23:22:00,28.0,10.0,30.21,West,280,3.0,4.0,46,-99.99,,,-99.99,,2013-02-16 05:22:00,
2013-02-15 23:32:00,27.0,11.0,30.19,WNW,295,1.0,2.0,51,-99.99,,,-99.99,,2013-02-16 05:32:00,
2013-02-15 23:42:00,27.0,11.0,30.19,WNW,295,1.0,3.0,49,-99.99,,,-99.99,,2013-02-16 05:42:00,
2013-02-15 23:52:00,27.0,11.0,30.19,WNW,295,1.0,3.0,49,-99.99,,,-99.99,,2013-02-16 05:52:00,